Miamisburg, OH

5:47 PM EST on February 21, 2017 (GMT -0500)
Dayton-Wright Brothers

Weather History for KMGY - March, 2014

Change the Weather History Date:

Monday, March 31, 2014

  Actual Average (KFFO) Record (KFFO)
Temperature  
Mean Temperature 50 °F -  
Max Temperature 64 °F 56 °F 77 °F (1998)
Min Temperature 36 °F 35 °F 24 °F (2011)
Degree Days  
Heating Degree Days 15    
Moisture  
Dew Point 30 °F    
Average Humidity 47    
Maximum Humidity 70    
Minimum Humidity 30    
Precipitation  
Precipitation 0.00 in - - ()
Sea Level Pressure  
Sea Level Pressure 30.13 in    
Wind  
Wind Speed 5 mph (SSE)    
Max Wind Speed 13 mph    
Max Gust Speed -    
Visibility 10 miles    
Events      
Averages and records for this station are not official NWS values.
T = Trace of Precipitation, MM = Missing Value Source: NWS Daily Summary

Daily Weather History Graph

Daily Weather History Graph

Search for Another Location

Airport or City:

Trip Planner

Search our weather history database for the weather conditions in past years. The results will help you decide how hot, cold, wet, or windy it might be!

Date:

Astronomy

Mar. 31, 2014 Rise Set
Actual Time 7:22 AM EDT 7:59 PM EDT
Civil Twilight 6:55 AM EDT 8:27 PM EDT
Nautical Twilight 6:23 AM EDT 8:59 PM EDT
Astronomical Twilight 5:50 AM EDT 9:32 PM EDT
Moon 7:45 AM EDT (3/31) 9:17 PM EDT (3/31)
Length of Visible Light 13h 31m
Length of Day
12h 37m
New Moon, 1% of the Moon is Illuminated
Mar 31
New Moon
Apr 7
First Quarter
Apr 15
Full
Apr 22
Last Quarter
Apr 29
New

Hourly Weather History & Observations

Time (EDT) Temp. Windchill Dew Point Humidity Pressure Visibility Wind Dir Wind Speed Gust Speed Precip Events Conditions
12:53 AM 41.0 °F - 27.0 °F 57% 30.17 in 10.0 mi Calm Calm - N/A   Clear
1:53 AM 37.9 °F - 28.0 °F 68% 30.18 in 10.0 mi Calm Calm - N/A   Clear
2:53 AM 37.9 °F 35.5 °F 27.0 °F 65% 30.18 in 10.0 mi ESE 3.5 mph - N/A   Clear
3:53 AM 41.0 °F 39.0 °F 27.0 °F 57% 30.15 in 10.0 mi ESE 3.5 mph - N/A   Clear
4:53 AM 39.0 °F - 27.0 °F 62% 30.14 in 10.0 mi Calm Calm - N/A   Clear
5:53 AM 37.9 °F - 27.0 °F 65% 30.16 in 10.0 mi Calm Calm - N/A   Clear
6:53 AM 36.0 °F - 27.0 °F 70% 30.19 in 10.0 mi Calm Calm - N/A   Clear
7:53 AM 36.0 °F 32.1 °F 27.0 °F 70% 30.20 in 10.0 mi South 4.6 mph - N/A   Clear
8:53 AM 42.1 °F 40.2 °F 32.0 °F 67% 30.21 in 10.0 mi South 3.5 mph - N/A   Clear
9:53 AM 46.9 °F - 30.9 °F 54% 30.21 in 10.0 mi South 10.4 mph - N/A   Clear
10:53 AM 52.0 °F - 32.0 °F 47% 30.21 in 10.0 mi South 8.1 mph - N/A   Clear
11:53 AM 54.0 °F - 32.0 °F 43% 30.20 in 10.0 mi South 9.2 mph - N/A   Clear
12:53 PM 57.9 °F - 33.1 °F 39% 30.17 in 10.0 mi SSE 12.7 mph - N/A   Clear
1:53 PM 59.0 °F - 32.0 °F 36% 30.16 in 10.0 mi SE 9.2 mph - N/A   Clear
2:53 PM 61.0 °F - 32.0 °F 34% 30.14 in 10.0 mi SSE 11.5 mph - N/A   Clear
3:53 PM 63.0 °F - 30.9 °F 30% 30.12 in 10.0 mi SSE 10.4 mph - N/A   Clear
4:53 PM 64.0 °F - 32.0 °F 30% 30.09 in 10.0 mi South 10.4 mph - N/A   Clear
5:53 PM 63.0 °F - 30.9 °F 30% 30.07 in 10.0 mi SSE 11.5 mph - N/A   Clear
6:53 PM 63.0 °F - 30.9 °F 30% 30.05 in 10.0 mi SE 10.4 mph - N/A   Clear
7:53 PM 59.0 °F - 32.0 °F 36% 30.03 in 10.0 mi SE 8.1 mph - N/A   Clear
8:53 PM 57.0 °F - 30.9 °F 37% 30.03 in 10.0 mi SE 6.9 mph - N/A   Clear
9:53 PM 55.9 °F - 30.0 °F 37% 30.02 in 10.0 mi SE 9.2 mph - N/A   Clear
10:53 PM 55.9 °F - 28.0 °F 34% 30.01 in 10.0 mi SE 9.2 mph - N/A   Clear
11:53 PM 55.0 °F - 28.0 °F 35% 29.99 in 10.0 mi SSE 11.5 mph - N/A   Clear